Regional Weather Roundup
Issued by NWS

Home | Current Version | Previous Version | Text Only | Print | Product List | Glossary Off
Versions: 1 2 3 4 5 6 7 8 9 10 11 12 13 14 15 16 17 18 19 20 21 22 23 24 25 26 27 28 29 30 31 32 33 34 35 36 37 38 39 40 41 42 43 44 45 46 47 48 49 50

000
ASUS43 KBIS 260120
RWRND

NORTH DAKOTA REGIONAL WEATHER ROUNDUP
NATIONAL WEATHER SERVICE BISMARCK ND
700 PM CST THU DEC 25 2014

NOTE: "FAIR" INDICATES FEW OR NO CLOUDS BELOW 12,000 FEET WITH NO
SIGNIFICANT WEATHER AND/OR OBSTRUCTIONS TO VISIBILITY.


NDZ001>003-009>011-017-260200-
NORTHWEST NORTH DAKOTA

CITY           SKY/WX    TMP DP  RH WIND       PRES   REMARKS
WILLISTON      CLOUDY    22  15  75 NW9       30.01R WCI  12
MINOT          CLOUDY    24  17  74 NW10      29.95R WCI  14
MINOT AFB      CLOUDY    23  22  95 N9        29.95R WCI  13
$$

NDZ018>021-031>035-040>046-260200-
SOUTHWEST NORTH DAKOTA

CITY           SKY/WX    TMP DP  RH WIND       PRES   REMARKS
BISMARCK       CLOUDY    27  21  78 NW15      29.94R WCI  15
DICKINSON      CLOUDY    24  17  74 N13       29.93R WCI  12
GARRISON         N/A     24  19  81 N14       29.94R WCI  12
HETTINGER ARPT CLOUDY    23  17  78 NW16      29.94R WCI  10
$$

NDZ004>008-012>016-024-026-027-054-260200-
NORTHEAST NORTH DAKOTA

CITY           SKY/WX    TMP DP  RH WIND       PRES   REMARKS
GRAND FORKS    CLOUDY    27  21  80 N12       29.93R WCI  16
GRND FRKS AFB  CLOUDY    26  26  99 N10       29.93R WCI  17
DEVILS LAKE    CLOUDY    25  21  86 N9        29.91S WCI  15
$$

NDZ022-023-025-028>030-036>039-047>053-260200-
SOUTHEAST NORTH DAKOTA

CITY           SKY/WX    TMP DP  RH WIND       PRES   REMARKS
FARGO          CLOUDY    28  22  78 N16       29.90R WCI  16
JAMESTOWN      CLOUDY    26  22  84 N9        29.90R WCI  17
$$



USA.gov is the U.S. government's official web portal to all federal, state and local government web resources and services.